DELTA 1 DEB, 7082

Orbit data source: Space-Track

DELTA 1 DEB, 7082 is space debris in SSO originally from a launch on Tue, 06 Nov 1973 UTC launched from the Air Force Western Test Range (AFWTR). Debris objects in space refer to the collection of defunct objects orbiting the Earth. Examples of debris include non-operational satellites, rocket bodies, and fragments generated from explosions, collisions, or faulty payload assembly.

Loading next visibility...
Identifier
7082, 1973-086CA
Orbit
SSO
Country
Flag of USUS
Related business
Manufacturer
Unknown
Mission
Spacecraft
Bus & Motor
Unknown
Mass
Unknown
Launch date (UTC)
1973-11-06 (52 years ago)
Launch vehicle
Unknown
Launch site
Air Force Western Test Range (AFWTR)
Object type
Payload
Rocket body
Debris
Shape & HBR
Unknown shape, 0.2 m
Radar Cross Section
Medium (>0.1 m² and <1 m²)

Expand to show TLE details & history
Last TLE update: 9 hours ago

TLE from 9 hours ago
0 DELTA 1 DEB
1 07082U 73086CA  25292.91954146  .00000790  00000-0  47005-2 0  9994
2 07082 101.7850 161.9388 0033980  30.0216  99.3889 12.61638250378460
Epoch: 2025-10-19T22:04Z
TLE epoch observation values (Epoch: 2025-10-19T22:04:08.382Z)
Latitude
48.87043°
Longitude
-3.9723°
Altitude
1,428.067 km
Speed
7.15 km/s
True Right ascension
23h 42m 46s
True Declination
48° 42' 53"
Sunlit
Object was in full shadow at epoch
Visualization orbit readout
Latitude
Unknown
Longitude
Unknown
Altitude
Unknown
Speed
Unknown
Apparent Right ascension
Unknown
Apparent Declination
Unknown
Sunlit
N/A
Visualization observer readout
Local Sidereal Time
01:45:51
Azimuth
Unknown
Elevation
Unknown
Doppler factor
Unknown
Orbital elements
Apogee altitude
1,440.2 km
Perigee altitude
1,387.247 km
Semi-major axis
7,791.86 km
Eccentricity
0.0034
Inclination
101.785°
RAAN
161.9388°
Arg. of periapsis
30.0216°
True anomaly
99.7728°
Mean anomaly
99.3889°
Eccentric anomaly
99.58088°
Mean motion
3.1556 °/min
Orbital period
114.08 mins
BSTAR
0.0047005
Loading maneuver chart data...
Computing Atmospheric mass density...
Loading historical data...
Loading historical data...
Loading historical data...
Loading historical data...
Loading historical data...
Loading historical data...
Loading historical data...

Documentation

Showing up to 5 results
|